Miscellaneous Local Product
Issued by NWS North Platte, NE

Home | Current Version | Previous Version | Text Only | Print | Product List | Glossary On
Versions: 1 2 3 4 5 6 7 8 9 10 11 12 13 14 15 16 17 18 19 20 21 22 23 24 25 26 27 28 29 30 31 32 33 34 35 36 37 38 39 40 41 42 43 44 45 46 47 48 49 50
630
AXUS43 KLBF 291510
MISLBF


WESTERN AND NORTH CENTRAL NEBRASKA HOURLY WEATHER ROUNDUP
NATIONAL WEATHER SERVICE NORTH PLATTE NE
1000 AM CDT SUN MAY 29 2016

NOTE: "FAIR" INDICATES FEW OR NO CLOUDS BELOW 12,000 FEET WITH NO
SIGNIFICANT WEATHER AND/OR OBSTRUCTIONS TO VISIBILITY.

NOTE: STATIONS NOT REPORTING VARIABLES SUCH AS SKY/WEATHER OR
PRESSURE ARE PROVIDED BY RAWS AND APRS NETWORKS AND ARE NOT UNDER
NATIONAL WEATHER SERVICE QUALITY CONTROL.

...OBSERVATIONS IN AND NEAR THE EASTERN PANHANDLE OF NEBRASKA...

CITY           SKY/WX    TMP DP  RH WIND       PRES   REMARKS
PINE RIDGE     SUNNY     60  50  69 CALM      30.12R
CHADRON        SUNNY     59  47  64 NE5       30.11F
ALLIANCE       SUNNY     61  52  72 S9        30.12R
SIDNEY         SUNNY     63  50  62 W8        30.15S
CRESCENT LAKE    N/A     65  53  65 S6          N/A
BIG SPRINGS      N/A     58  53  82 CALM        N/A
$$

...OBSERVATIONS IN NORTHERN NEBRASKA AND FAR SOUTHERN SOUTH DAKOTA...

CITY           SKY/WX    TMP DP  RH WIND       PRES   REMARKS
WINNER         FAIR      66  54  65 NW3       30.10R
VALENTINE      MOSUNNY   63  51  65 SW5       30.12R
THEDFORD       MOSUNNY   66  52  60 S3        30.14S
AINSWORTH      SUNNY     65  52  62 CALM      30.13R
O`NEILL        SUNNY     71  56  59 CALM      30.12R
ORD            SUNNY     68  57  68 SW5       30.10S
BROKEN BOW     MOSUNNY   66  56  70 SW5       30.12F
BUTTE            N/A     67  59  74 W6          N/A
CHAMBERS         N/A     76  56  50 NW3         N/A
EWING            N/A     70  61  72 W3          N/A
$$

...OBSERVATIONS IN SOUTHWEST NEBRASKA AND FAR NORTHEAST COLORADO...

CITY           SKY/WX    TMP DP  RH WIND       PRES   REMARKS
WRAY           FAIR      68  52  56 SW3       30.14S
IMPERIAL       SUNNY     64  54  69 CALM      30.14S
OGALLALA       SUNNY     64  52  65 CALM      30.14S
NORTH PLATTE   SUNNY     65  52  62 CALM      30.14S
MCCOOK         SUNNY     66  54  65 CALM      30.13S
LEXINGTON      SUNNY     67  55  65 CALM      30.13S
PAXTON           N/A     58  56  93 CALM        N/A
STAPLETON        N/A     66  56  71 CALM        N/A
GOTHENBURG       N/A     65  50  58 CALM        N/A
CALLAWAY         N/A     64  56  76 CALM        N/A
$$

...OBSERVATIONS IN CENTRAL LINCOLN COUNTY AREA...

CITY           SKY/WX    TMP DP  RH WIND       PRES   REMARKS
N.P. AIRPORT   SUNNY     65  52  62 CALM      30.14S
N.P. DOWNTOWN    N/A     68  53  59 CALM        N/A
N.P. SOUTHEAST   N/A     66  52  60 CALM        N/A
N.P. HILLCREST   N/A     66  54  65 CALM        N/A
$$

...SOME OBSERVATIONS FROM AROUND THE REGION...

CITY           SKY/WX    TMP DP  RH WIND       PRES   REMARKS
DENVER         MOSUNNY   63  41  44 SW8       30.18R
LARAMIE        SUNNY     55  37  50 S10       30.24S
CHEYENNE       SUNNY     64  39  39 VRB3      30.20R
SCOTTSBLUFF    SUNNY     60  49  66 VRB3      30.13R
RAPID CITY     CLOUDY    63  48  58 W3        30.11R
BISMARCK       SUNNY     64  57  78 SW6       30.03S
PIERRE         SUNNY     66  53  63 W3        30.07R
SIOUX FALLS    MOSUNNY   69  60  73 W6        30.04R
OMAHA          CLOUDY    70  59  68 S6        30.10R
GRAND ISLAND   SUNNY     71  55  56 SW7       30.11F
KANSAS CITY    MOSUNNY   74  62  66 VRB6      30.12R
WICHITA        MOSUNNY   79  71  76 SW7       30.12R
OKLAHOMA CITY  MOSUNNY   77  60  55 W8        30.16R
DALLAS         PTSUNNY   74  66  76 SE9       30.09R
AMARILLO       SUNNY     71  56  58 S14       30.19F
DODGE CITY     CLOUDY    72  61  68 S9        30.13S
HAYS           SUNNY     75  59  57 S10       30.12S
GOODLAND       SUNNY     68  51  54 S12       30.14S
$$




USA.gov is the U.S. government's official web portal to all federal, state and local government web resources and services.